Time,TemperatureF,DewpointF,PressureIn,WindDirection,WindDirectionDegrees,WindSpeedMPH,WindSpeedGustMPH,Humidity,HourlyPrecipIn,Conditions,Clouds,dailyrainin,SoftwareType,DateUTC
2013-03-26 00:01:00,4.3,-8.3,21.70,NW,315,0.0,0.0,55,0.00,,---,0.00,VWS V14.01,2013-03-26 06:01:00,
2013-03-26 00:06:00,4.5,-8.1,21.70,NW,315,0.0,0.0,55,0.00,,---,0.00,VWS V14.01,2013-03-26 06:06:00,
2013-03-26 00:11:00,4.6,-8.0,21.70,NW,315,0.0,0.0,55,0.00,,---,0.00,VWS V14.01,2013-03-26 06:11:00,
2013-03-26 00:16:00,4.5,-8.1,21.70,North,0,0.0,0.0,55,0.00,,---,0.00,VWS V14.01,2013-03-26 06:16:00,
2013-03-26 00:22:00,4.6,-8.0,21.70,North,0,0.0,0.0,55,0.00,,---,0.00,VWS V14.01,2013-03-26 06:22:00,
2013-03-26 00:27:00,5.5,-7.1,21.70,North,0,0.0,0.0,55,0.00,,---,0.00,VWS V14.01,2013-03-26 06:27:00,
2013-03-26 00:32:00,5.4,-7.3,21.70,North,0,0.0,3.6,55,0.00,,---,0.00,VWS V14.01,2013-03-26 06:32:00,
2013-03-26 00:37:00,5.5,-7.1,21.70,North,0,0.0,0.0,55,0.00,,---,0.00,VWS V14.01,2013-03-26 06:37:00,
2013-03-26 00:42:00,6.1,-6.6,21.70,North,0,0.0,0.0,55,0.00,,---,0.00,VWS V14.01,2013-03-26 06:42:00,
2013-03-26 00:47:00,6.1,-6.6,21.70,North,0,0.0,0.0,55,0.00,,---,0.00,VWS V14.01,2013-03-26 06:47:00,
2013-03-26 00:52:00,5.5,-7.1,21.70,North,0,2.7,2.7,55,0.00,,---,0.00,VWS V14.01,2013-03-26 06:52:00,
2013-03-26 00:57:00,5.7,-6.9,21.70,North,0,0.0,2.2,55,0.00,,---,0.00,VWS V14.01,2013-03-26 06:57:00,
2013-03-26 01:02:00,5.9,-6.8,21.70,North,0,0.0,0.0,55,0.00,,---,0.00,VWS V14.01,2013-03-26 07:02:00,
2013-03-26 01:08:00,6.1,-6.6,21.70,North,0,0.0,2.7,55,0.00,,---,0.00,VWS V14.01,2013-03-26 07:08:00,
2013-03-26 01:13:00,7.0,-5.8,21.70,North,0,0.0,0.0,55,0.00,,---,0.00,VWS V14.01,2013-03-26 07:13:00,
2013-03-26 01:19:00,8.6,-4.2,21.70,North,0,0.0,0.0,55,0.00,,---,0.00,VWS V14.01,2013-03-26 07:19:00,
2013-03-26 01:24:00,9.5,-3.4,21.70,North,0,0.0,0.0,55,0.00,,---,0.00,VWS V14.01,2013-03-26 07:24:00,
2013-03-26 01:29:00,10.4,-2.6,21.70,North,0,0.0,0.0,55,0.00,,---,0.00,VWS V14.01,2013-03-26 07:29:00,
2013-03-26 01:35:00,10.0,-2.9,21.70,North,0,0.0,0.0,55,0.00,,---,0.00,VWS V14.01,2013-03-26 07:35:00,
2013-03-26 01:41:00,10.4,-2.6,21.70,North,0,0.0,0.0,55,0.00,,---,0.00,VWS V14.01,2013-03-26 07:41:00,
2013-03-26 01:48:00,11.5,-1.5,21.70,North,0,0.0,0.0,55,0.00,,---,0.00,VWS V14.01,2013-03-26 07:48:00,
2013-03-26 01:53:00,11.8,-1.2,21.70,North,0,0.0,0.0,55,0.00,,---,0.00,VWS V14.01,2013-03-26 07:53:00,
2013-03-26 01:59:00,12.6,-0.5,21.70,North,0,0.0,0.0,55,0.00,,---,0.00,VWS V14.01,2013-03-26 07:59:00,
2013-03-26 02:04:00,13.6,0.5,21.67,South,180,3.1,5.4,55,0.00,,---,0.00,VWS V14.01,2013-03-26 08:04:00,
2013-03-26 02:09:00,14.9,-2.1,21.67,SSE,158,0.0,0.0,46,0.00,,---,0.00,VWS V14.01,2013-03-26 08:09:00,
2013-03-26 02:14:00,15.8,-1.8,21.67,SW,225,0.0,0.0,45,0.00,,---,0.00,VWS V14.01,2013-03-26 08:14:00,
2013-03-26 02:20:00,15.6,-1.9,21.67,North,0,0.0,3.6,45,0.00,,---,0.00,VWS V14.01,2013-03-26 08:20:00,
2013-03-26 02:26:00,14.5,-2.9,21.67,North,0,0.0,0.0,45,0.00,,---,0.00,VWS V14.01,2013-03-26 08:26:00,
2013-03-26 02:31:00,13.6,-3.3,21.67,North,0,0.0,0.0,46,0.00,,---,0.00,VWS V14.01,2013-03-26 08:31:00,
2013-03-26 02:36:00,12.7,-4.1,21.67,North,0,0.0,0.0,46,0.00,,---,0.00,VWS V14.01,2013-03-26 08:36:00,
2013-03-26 02:41:00,12.2,-4.6,21.67,North,0,0.0,0.0,46,0.00,,---,0.00,VWS V14.01,2013-03-26 08:41:00,
2013-03-26 02:47:00,12.2,-4.6,21.67,North,0,0.0,0.0,46,0.00,,---,0.00,VWS V14.01,2013-03-26 08:47:00,
2013-03-26 02:52:00,12.0,-4.8,21.67,North,0,0.0,0.0,46,0.00,,---,0.00,VWS V14.01,2013-03-26 08:52:00,
2013-03-26 02:57:00,11.3,-5.4,21.67,North,0,0.0,0.0,46,0.00,,---,0.00,VWS V14.01,2013-03-26 08:57:00,
2013-03-26 03:02:00,11.1,-5.6,21.67,North,0,0.0,0.0,46,0.00,,---,0.00,VWS V14.01,2013-03-26 09:02:00,
2013-03-26 03:08:00,10.9,-5.8,21.67,North,0,0.0,0.0,46,0.00,,---,0.00,VWS V14.01,2013-03-26 09:08:00,
2013-03-26 03:13:00,10.8,-5.9,21.67,North,0,0.0,0.0,46,0.00,,---,0.00,VWS V14.01,2013-03-26 09:13:00,
2013-03-26 03:18:00,12.7,-4.1,21.67,North,0,0.0,0.0,46,0.00,,---,0.00,VWS V14.01,2013-03-26 09:18:00,
2013-03-26 03:23:00,13.1,-3.8,21.67,North,0,3.1,3.1,46,0.00,,---,0.00,VWS V14.01,2013-03-26 09:23:00,
2013-03-26 03:28:00,13.1,-3.8,21.67,East,90,6.7,6.7,46,0.00,,---,0.00,VWS V14.01,2013-03-26 09:28:00,
2013-03-26 03:34:00,13.8,-3.1,21.67,WNW,292,0.0,3.1,46,0.00,,---,0.00,VWS V14.01,2013-03-26 09:34:00,
2013-03-26 03:39:00,14.4,0.4,21.67,WNW,292,2.2,2.2,53,0.00,,---,0.00,VWS V14.01,2013-03-26 09:39:00,
2013-03-26 03:44:00,15.3,1.6,21.67,SE,135,2.7,6.3,54,0.00,,---,0.00,VWS V14.01,2013-03-26 09:44:00,
2013-03-26 03:49:00,15.4,1.4,21.67,NW,315,0.0,0.0,53,0.00,,---,0.00,VWS V14.01,2013-03-26 09:49:00,
2013-03-26 03:55:00,16.9,2.7,21.67,East,90,5.4,5.4,53,0.00,,---,0.00,VWS V14.01,2013-03-26 09:55:00,
2013-03-26 04:00:00,17.4,2.8,21.67,East,90,0.0,3.6,52,0.00,,---,0.00,VWS V14.01,2013-03-26 10:00:00,
2013-03-26 04:06:00,17.4,2.8,21.67,East,90,0.0,0.0,52,0.00,,---,0.00,VWS V14.01,2013-03-26 10:06:00,
2013-03-26 04:12:00,17.8,2.7,21.67,ENE,68,0.0,0.0,51,0.00,,---,0.00,VWS V14.01,2013-03-26 10:12:00,
2013-03-26 04:17:00,17.8,2.7,21.67,ENE,68,0.0,0.0,51,0.00,,---,0.00,VWS V14.01,2013-03-26 10:17:00,
2013-03-26 04:23:00,17.6,3.0,21.67,ENE,68,0.0,0.0,52,0.00,,---,0.00,VWS V14.01,2013-03-26 10:23:00,
2013-03-26 04:28:00,17.4,2.4,21.67,ENE,68,0.0,0.0,51,0.00,,---,0.00,VWS V14.01,2013-03-26 10:28:00,
2013-03-26 04:33:00,16.7,2.1,21.67,ENE,68,0.0,0.0,52,0.00,,---,0.00,VWS V14.01,2013-03-26 10:33:00,
2013-03-26 04:38:00,16.5,2.0,21.67,ENE,68,0.0,0.0,52,0.00,,---,0.00,VWS V14.01,2013-03-26 10:38:00,
2013-03-26 04:43:00,16.5,2.0,21.67,ENE,68,0.0,0.0,52,0.00,,---,0.00,VWS V14.01,2013-03-26 10:43:00,
2013-03-26 04:49:00,16.0,2.3,21.67,ENE,68,0.0,0.0,54,0.00,,---,0.00,VWS V14.01,2013-03-26 10:49:00,
2013-03-26 04:54:00,16.2,2.5,21.67,ENE,68,0.0,0.0,54,0.00,,---,0.00,VWS V14.01,2013-03-26 10:54:00,
2013-03-26 04:59:00,16.7,3.0,21.67,ENE,68,0.0,0.0,54,0.00,,---,0.00,VWS V14.01,2013-03-26 10:59:00,
2013-03-26 05:05:00,17.4,3.2,21.64,East,90,5.4,5.4,53,0.00,,---,0.00,VWS V14.01,2013-03-26 11:05:00,
2013-03-26 05:10:00,18.5,3.4,21.64,SW,225,0.0,2.7,51,0.00,,---,0.00,VWS V14.01,2013-03-26 11:10:00,
2013-03-26 05:15:00,19.0,3.5,21.67,SE,135,2.2,3.1,50,0.00,,---,0.00,VWS V14.01,2013-03-26 11:15:00,
2013-03-26 05:21:00,19.6,3.5,21.67,SW,225,0.0,4.0,49,0.00,,---,0.00,VWS V14.01,2013-03-26 11:21:00,
2013-03-26 05:26:00,19.8,3.3,21.67,East,90,3.1,3.1,48,0.00,,---,0.00,VWS V14.01,2013-03-26 11:26:00,
2013-03-26 05:32:00,19.6,3.1,21.67,ESE,112,0.0,0.0,48,0.00,,---,0.00,VWS V14.01,2013-03-26 11:32:00,
2013-03-26 05:37:00,20.1,3.6,21.67,North,0,0.0,0.0,48,0.00,,---,0.00,VWS V14.01,2013-03-26 11:37:00,
2013-03-26 05:42:00,20.3,3.3,21.67,North,0,0.0,0.0,47,0.00,,---,0.00,VWS V14.01,2013-03-26 11:42:00,
2013-03-26 05:47:00,20.1,3.1,21.67,West,270,2.7,6.3,47,0.00,,---,0.00,VWS V14.01,2013-03-26 11:47:00,
2013-03-26 05:53:00,20.7,3.6,21.67,NW,315,0.0,0.0,47,0.00,,---,0.00,VWS V14.01,2013-03-26 11:53:00,
2013-03-26 05:58:00,19.9,3.0,21.67,NW,315,0.0,0.0,47,0.00,,---,0.00,VWS V14.01,2013-03-26 11:58:00,
2013-03-26 06:05:00,19.8,3.3,21.64,NW,315,0.0,0.0,48,0.00,,---,0.00,VWS V14.01,2013-03-26 12:05:00,
2013-03-26 06:10:00,19.8,3.3,21.64,WSW,248,0.0,4.0,48,0.00,,---,0.00,VWS V14.01,2013-03-26 12:10:00,
2013-03-26 06:15:00,19.8,3.3,21.64,NW,315,0.0,0.0,48,0.00,,---,0.00,VWS V14.01,2013-03-26 12:15:00,
2013-03-26 06:22:00,19.6,3.5,21.64,NW,315,3.6,4.0,49,0.00,,---,0.00,VWS V14.01,2013-03-26 12:22:00,
2013-03-26 06:27:00,20.5,4.4,21.64,North,0,2.2,4.0,49,0.00,,---,0.00,VWS V14.01,2013-03-26 12:27:00,
2013-03-26 06:32:00,20.8,4.7,21.67,NW,315,2.2,4.0,49,0.00,,---,0.00,VWS V14.01,2013-03-26 12:32:00,
2013-03-26 06:37:00,21.0,4.9,21.67,West,270,2.2,7.2,49,0.00,,---,0.00,VWS V14.01,2013-03-26 12:37:00,
2013-03-26 06:43:00,20.8,4.7,21.67,NW,315,5.4,5.4,49,0.00,,---,0.00,VWS V14.01,2013-03-26 12:43:00,
2013-03-26 06:48:00,20.7,4.5,21.67,NW,315,4.5,4.5,49,0.00,,---,0.00,VWS V14.01,2013-03-26 12:48:00,
2013-03-26 06:54:00,20.7,4.5,21.67,NW,315,4.0,4.5,49,0.00,,---,0.00,VWS V14.01,2013-03-26 12:54:00,
2013-03-26 07:01:00,21.0,4.9,21.67,NW,315,0.0,4.0,49,0.00,,---,0.00,VWS V14.01,2013-03-26 13:01:00,
2013-03-26 07:06:00,20.5,4.4,21.67,NW,315,0.0,0.0,49,0.00,,---,0.00,VWS V14.01,2013-03-26 13:06:00,
2013-03-26 07:12:00,21.6,5.4,21.67,NW,315,6.7,7.2,49,0.00,,---,0.00,VWS V14.01,2013-03-26 13:12:00,
2013-03-26 07:17:00,22.1,5.9,21.67,West,270,4.0,6.3,49,0.00,,---,0.00,VWS V14.01,2013-03-26 13:17:00,
2013-03-26 07:22:00,22.8,6.5,21.67,NW,315,0.0,0.0,49,0.00,,---,0.00,VWS V14.01,2013-03-26 13:22:00,
2013-03-26 07:27:00,22.8,6.1,21.67,NW,315,3.6,3.6,48,0.00,,---,0.00,VWS V14.01,2013-03-26 13:27:00,
2013-03-26 07:32:00,23.0,6.2,21.67,NW,315,4.0,4.0,48,0.00,,---,0.00,VWS V14.01,2013-03-26 13:32:00,
2013-03-26 07:37:00,22.8,6.1,21.67,NW,315,3.6,5.4,48,0.00,,---,0.00,VWS V14.01,2013-03-26 13:37:00,
2013-03-26 07:42:00,23.4,6.6,21.67,West,270,5.4,5.4,48,0.00,,---,0.00,VWS V14.01,2013-03-26 13:42:00,
2013-03-26 07:48:00,23.5,6.8,21.67,NW,315,0.0,3.1,48,0.00,,---,0.00,VWS V14.01,2013-03-26 13:48:00,
2013-03-26 07:53:00,23.7,6.9,21.67,West,270,4.0,7.6,48,0.00,,---,0.00,VWS V14.01,2013-03-26 13:53:00,
2013-03-26 07:58:00,24.6,7.7,21.67,NW,315,3.1,3.6,48,0.00,,---,0.00,VWS V14.01,2013-03-26 13:58:00,
2013-03-26 08:04:00,25.0,7.6,21.67,NW,315,5.4,5.4,47,0.00,,---,0.00,VWS V14.01,2013-03-26 14:04:00,
2013-03-26 08:09:00,24.8,7.4,21.67,WNW,292,2.2,2.2,47,0.00,,---,0.00,VWS V14.01,2013-03-26 14:09:00,
2013-03-26 08:14:00,25.0,7.6,21.67,NW,315,2.7,4.9,47,0.00,,---,0.00,VWS V14.01,2013-03-26 14:14:00,
2013-03-26 08:19:00,25.0,7.6,21.67,NW,315,5.4,5.4,47,0.00,,---,0.00,VWS V14.01,2013-03-26 14:19:00,
2013-03-26 08:24:00,25.0,7.6,21.67,NW,315,2.7,4.0,47,0.00,,---,0.00,VWS V14.01,2013-03-26 14:24:00,
2013-03-26 08:30:00,25.2,7.8,21.67,West,270,6.7,7.2,47,0.00,,---,0.00,VWS V14.01,2013-03-26 14:30:00,
2013-03-26 08:35:00,25.7,8.3,21.67,NW,315,4.0,5.8,47,0.00,,---,0.00,VWS V14.01,2013-03-26 14:35:00,
2013-03-26 08:41:00,26.4,8.9,21.67,West,270,2.7,3.6,47,0.00,,---,0.00,VWS V14.01,2013-03-26 14:41:00,
2013-03-26 08:46:00,27.0,9.4,21.67,NW,315,3.6,4.0,47,0.00,,---,0.00,VWS V14.01,2013-03-26 14:46:00,
2013-03-26 08:52:00,27.5,9.9,21.67,WNW,292,3.1,6.3,47,0.00,,---,0.00,VWS V14.01,2013-03-26 14:52:00,
2013-03-26 08:57:00,27.7,9.6,21.67,WSW,248,3.1,3.1,46,0.00,,---,0.00,VWS V14.01,2013-03-26 14:57:00,
2013-03-26 09:03:00,28.4,10.3,21.67,West,270,4.9,4.9,46,0.00,,---,0.00,VWS V14.01,2013-03-26 15:03:00,
2013-03-26 09:09:00,28.6,9.9,21.67,NW,315,2.7,5.4,45,0.00,,---,0.00,VWS V14.01,2013-03-26 15:09:00,
2013-03-26 09:14:00,29.3,10.6,21.67,NW,315,0.0,8.1,45,0.00,,---,0.00,VWS V14.01,2013-03-26 15:14:00,
2013-03-26 09:19:00,30.2,11.4,21.67,NW,315,10.5,10.5,45,0.00,,---,0.00,VWS V14.01,2013-03-26 15:19:00,
2013-03-26 09:24:00,30.2,10.9,21.67,NW,315,7.6,7.6,44,0.00,,---,0.00,VWS V14.01,2013-03-26 15:24:00,
2013-03-26 09:30:00,30.7,11.4,21.67,NW,315,3.6,3.6,44,0.00,,---,0.00,VWS V14.01,2013-03-26 15:30:00,
2013-03-26 09:35:00,31.8,12.4,21.67,West,270,0.0,2.7,44,0.00,,---,0.00,VWS V14.01,2013-03-26 15:35:00,
2013-03-26 09:40:00,31.1,11.2,21.67,NW,315,4.9,5.4,43,0.00,,---,0.00,VWS V14.01,2013-03-26 15:40:00,
2013-03-26 09:47:00,31.1,11.2,21.67,SW,225,2.7,5.4,43,0.00,,---,0.00,VWS V14.01,2013-03-26 15:47:00,
2013-03-26 09:52:00,31.3,11.4,21.67,NW,315,2.2,3.1,43,0.00,,---,0.00,VWS V14.01,2013-03-26 15:52:00,
2013-03-26 09:57:00,31.1,11.2,21.67,NW,315,4.9,8.3,43,0.00,,---,0.00,VWS V14.01,2013-03-26 15:57:00,
2013-03-26 10:02:00,31.5,11.6,21.67,SW,225,6.3,6.3,43,0.00,,---,0.00,VWS V14.01,2013-03-26 16:02:00,
2013-03-26 10:08:00,31.8,11.9,21.67,NW,315,2.7,7.2,43,0.00,,---,0.00,VWS V14.01,2013-03-26 16:08:00,
2013-03-26 10:13:00,32.4,12.4,21.67,NW,315,8.3,8.3,43,0.00,,---,0.00,VWS V14.01,2013-03-26 16:13:00,
2013-03-26 10:19:00,33.1,13.0,21.67,West,270,4.9,5.4,43,0.00,,---,0.00,VWS V14.01,2013-03-26 16:19:00,
2013-03-26 10:24:00,33.6,13.0,21.67,West,270,4.0,4.9,42,0.00,,---,0.00,VWS V14.01,2013-03-26 16:24:00,
2013-03-26 10:30:00,34.7,14.0,21.67,SE,135,4.0,4.9,42,0.00,,---,0.00,VWS V14.01,2013-03-26 16:30:00,
2013-03-26 10:35:00,35.8,14.4,21.67,NW,315,6.3,6.3,41,0.00,,---,0.00,VWS V14.01,2013-03-26 16:35:00,
2013-03-26 10:40:00,36.0,14.6,21.67,NW,315,7.6,9.2,41,0.00,,---,0.00,VWS V14.01,2013-03-26 16:40:00,
2013-03-26 10:45:00,36.7,15.2,21.67,East,90,3.6,3.6,41,0.00,,---,0.00,VWS V14.01,2013-03-26 16:45:00,
2013-03-26 10:51:00,36.3,14.3,21.67,NW,315,3.6,8.3,40,0.00,,---,0.00,VWS V14.01,2013-03-26 16:51:00,
2013-03-26 10:56:00,36.7,14.6,21.67,SE,135,9.6,9.6,40,0.00,,---,0.00,VWS V14.01,2013-03-26 16:56:00,
2013-03-26 11:01:00,37.0,15.0,21.67,West,270,5.4,6.3,40,0.00,,---,0.00,VWS V14.01,2013-03-26 17:01:00,
2013-03-26 11:07:00,38.7,16.4,21.67,NE,45,4.0,7.2,40,0.00,,---,0.00,VWS V14.01,2013-03-26 17:07:00,
2013-03-26 11:12:00,38.8,16.0,21.67,NW,315,3.1,7.6,39,0.00,,---,0.00,VWS V14.01,2013-03-26 17:12:00,
2013-03-26 11:17:00,38.7,15.9,21.67,North,0,8.7,8.7,39,0.00,,---,0.00,VWS V14.01,2013-03-26 17:17:00,
2013-03-26 11:22:00,38.7,15.9,21.67,NW,315,8.3,8.3,39,0.00,,---,0.00,VWS V14.01,2013-03-26 17:22:00,
2013-03-26 11:27:00,38.7,15.9,21.67,WSW,248,0.0,6.3,39,0.00,,---,0.00,VWS V14.01,2013-03-26 17:27:00,
2013-03-26 11:32:00,39.6,16.7,21.64,NW,315,7.6,7.6,39,0.00,,---,0.00,VWS V14.01,2013-03-26 17:32:00,
2013-03-26 11:38:00,40.8,17.8,21.64,SW,225,4.9,4.9,39,0.00,,---,0.00,VWS V14.01,2013-03-26 17:38:00,
2013-03-26 11:43:00,41.4,17.7,21.64,NW,315,4.0,5.8,38,0.00,,---,0.00,VWS V14.01,2013-03-26 17:43:00,
2013-03-26 11:48:00,41.4,17.7,21.64,South,180,7.6,8.1,38,0.00,,---,0.00,VWS V14.01,2013-03-26 17:48:00,
2013-03-26 11:54:00,40.6,17.6,21.64,NW,315,3.1,4.0,39,0.00,,---,0.00,VWS V14.01,2013-03-26 17:54:00,
2013-03-26 11:59:00,39.4,16.5,21.64,WNW,292,8.1,8.3,39,0.00,,---,0.00,VWS V14.01,2013-03-26 17:59:00,
2013-03-26 12:05:00,40.3,17.3,21.64,NW,315,4.0,8.1,39,0.00,,---,0.00,VWS V14.01,2013-03-26 18:05:00,
2013-03-26 12:10:00,40.6,17.6,21.64,NNW,338,2.7,5.4,39,0.00,,---,0.00,VWS V14.01,2013-03-26 18:10:00,
2013-03-26 12:15:00,40.6,17.6,21.64,West,270,3.1,3.6,39,0.00,,---,0.00,VWS V14.01,2013-03-26 18:15:00,
2013-03-26 12:20:00,40.5,17.5,21.64,NW,315,3.6,7.2,39,0.00,,---,0.00,VWS V14.01,2013-03-26 18:20:00,
2013-03-26 12:26:00,39.9,17.0,21.64,South,180,3.1,3.1,39,0.00,,---,0.00,VWS V14.01,2013-03-26 18:26:00,
2013-03-26 12:31:00,41.0,17.4,21.64,East,90,3.6,10.5,38,0.00,,---,0.00,VWS V14.01,2013-03-26 18:31:00,
2013-03-26 12:36:00,42.3,18.5,21.64,WNW,292,4.0,4.0,38,0.00,,---,0.00,VWS V14.01,2013-03-26 18:36:00,
2013-03-26 12:41:00,42.4,18.6,21.64,NW,315,3.1,7.6,38,0.00,,---,0.00,VWS V14.01,2013-03-26 18:41:00,
2013-03-26 12:47:00,43.3,19.5,21.64,East,90,2.7,5.8,38,0.00,,---,0.00,VWS V14.01,2013-03-26 18:47:00,
2013-03-26 12:53:00,44.4,20.4,21.64,SW,225,0.0,0.0,38,0.00,,---,0.00,VWS V14.01,2013-03-26 18:53:00,
2013-03-26 12:59:00,45.9,21.1,21.64,NW,315,0.0,2.7,37,0.00,,---,0.00,VWS V14.01,2013-03-26 18:59:00,
2013-03-26 13:04:00,44.8,19.5,21.64,NW,315,6.3,6.3,36,0.00,,---,0.00,VWS V14.01,2013-03-26 19:04:00,
2013-03-26 13:09:00,44.2,20.3,21.64,SW,225,3.6,3.6,38,0.00,,---,0.00,VWS V14.01,2013-03-26 19:09:00,
2013-03-26 13:14:00,43.3,18.8,21.64,NW,315,2.7,4.0,37,0.00,,---,0.00,VWS V14.01,2013-03-26 19:14:00,
2013-03-26 13:20:00,44.4,19.1,21.64,West,270,4.9,5.4,36,0.00,,---,0.00,VWS V14.01,2013-03-26 19:20:00,
2013-03-26 13:25:00,43.5,18.4,21.64,North,0,2.7,6.3,36,0.00,,---,0.00,VWS V14.01,2013-03-26 19:25:00,
2013-03-26 13:30:00,43.5,18.4,21.64,NW,315,5.8,5.8,36,0.00,,---,0.00,VWS V14.01,2013-03-26 19:30:00,
2013-03-26 13:35:00,44.2,19.0,21.64,NW,315,3.1,3.1,36,0.04,,---,0.04,VWS V14.01,2013-03-26 19:35:00,
2013-03-26 13:40:00,45.0,19.6,21.64,East,90,5.8,5.8,36,0.04,,---,0.04,VWS V14.01,2013-03-26 19:40:00,
2013-03-26 13:45:00,43.5,18.4,21.64,NW,315,2.2,2.2,36,0.04,,---,0.04,VWS V14.01,2013-03-26 19:45:00,
2013-03-26 13:50:00,45.0,19.0,21.64,NNW,338,2.2,4.0,35,0.08,,---,0.08,VWS V14.01,2013-03-26 19:50:00,
2013-03-26 13:56:00,45.1,19.1,21.64,SE,135,2.7,7.2,35,0.13,,---,0.13,VWS V14.01,2013-03-26 19:56:00,
2013-03-26 14:01:00,44.6,19.3,21.64,South,180,4.9,4.9,36,0.13,,---,0.13,VWS V14.01,2013-03-26 20:01:00,
2013-03-26 14:06:00,43.5,18.4,21.64,SW,225,2.2,8.1,36,0.13,,---,0.13,VWS V14.01,2013-03-26 20:06:00,
2013-03-26 14:12:00,44.1,18.8,21.64,South,180,6.7,6.7,36,0.13,,---,0.13,VWS V14.01,2013-03-26 20:12:00,
2013-03-26 14:17:00,43.7,18.5,21.64,East,90,3.1,4.0,36,0.17,,---,0.17,VWS V14.01,2013-03-26 20:17:00,
2013-03-26 14:22:00,42.1,17.7,21.64,NW,315,2.7,7.6,37,0.17,,---,0.17,VWS V14.01,2013-03-26 20:22:00,
2013-03-26 14:27:00,42.3,17.9,21.64,WSW,248,2.7,4.5,37,0.17,,---,0.17,VWS V14.01,2013-03-26 20:27:00,
2013-03-26 14:33:00,42.1,18.3,21.64,NW,315,4.0,4.5,38,0.17,,---,0.17,VWS V14.01,2013-03-26 20:33:00,
2013-03-26 14:38:00,41.2,16.9,21.64,WNW,292,3.1,7.6,37,0.13,,---,0.17,VWS V14.01,2013-03-26 20:38:00,
2013-03-26 14:43:00,41.5,17.2,21.64,NW,315,5.4,11.9,37,0.13,,---,0.17,VWS V14.01,2013-03-26 20:43:00,
2013-03-26 14:48:00,42.8,17.7,21.64,East,90,6.3,6.3,36,0.09,,---,0.17,VWS V14.01,2013-03-26 20:48:00,
2013-03-26 14:54:00,43.3,18.2,21.64,West,270,2.7,5.4,36,0.09,,---,0.17,VWS V14.01,2013-03-26 20:54:00,
2013-03-26 14:59:00,43.9,18.7,21.64,NW,315,3.6,4.0,36,0.04,,---,0.17,VWS V14.01,2013-03-26 20:59:00,
2013-03-26 15:04:00,44.2,18.3,21.64,SW,225,2.7,9.6,35,0.04,,---,0.17,VWS V14.01,2013-03-26 21:04:00,
2013-03-26 15:09:00,45.0,19.0,21.64,East,90,8.1,8.1,35,0.04,,---,0.17,VWS V14.01,2013-03-26 21:09:00,
2013-03-26 15:15:00,44.6,18.0,21.64,SW,225,0.0,4.9,34,0.04,,---,0.17,VWS V14.01,2013-03-26 21:15:00,
2013-03-26 15:20:00,44.4,18.5,21.62,SW,225,2.7,5.4,35,0.00,,---,0.17,VWS V14.01,2013-03-26 21:20:00,
2013-03-26 15:25:00,43.2,16.7,21.62,East,90,5.8,7.2,34,0.00,,---,0.17,VWS V14.01,2013-03-26 21:25:00,
2013-03-26 15:30:00,42.8,17.1,21.62,SE,135,8.1,10.5,35,0.00,,---,0.17,VWS V14.01,2013-03-26 21:30:00,
2013-03-26 15:37:00,43.9,18.0,21.62,SSW,202,2.7,4.0,35,0.00,,---,0.17,VWS V14.01,2013-03-26 21:37:00,
2013-03-26 15:42:00,44.6,18.0,21.62,WNW,292,3.6,3.6,34,0.00,,---,0.17,VWS V14.01,2013-03-26 21:42:00,
2013-03-26 15:48:00,43.7,16.5,21.62,NW,315,2.7,6.3,33,0.00,,---,0.17,VWS V14.01,2013-03-26 21:48:00,
2013-03-26 15:54:00,45.7,18.2,21.62,West,270,3.1,3.6,33,0.00,,---,0.17,VWS V14.01,2013-03-26 21:54:00,
2013-03-26 15:59:00,45.3,17.9,21.62,NW,315,4.0,5.4,33,0.00,,---,0.17,VWS V14.01,2013-03-26 21:59:00,
2013-03-26 16:04:00,45.3,17.2,21.62,NW,315,4.9,9.6,32,0.00,,---,0.17,VWS V14.01,2013-03-26 22:04:00,
2013-03-26 16:11:00,45.0,16.9,21.62,NW,315,8.1,8.7,32,0.00,,---,0.17,VWS V14.01,2013-03-26 22:11:00,
2013-03-26 16:16:00,44.6,16.6,21.64,West,270,4.0,4.5,32,0.00,,---,0.17,VWS V14.01,2013-03-26 22:16:00,
2013-03-26 16:22:00,44.6,16.6,21.64,West,270,8.7,8.7,32,0.00,,---,0.17,VWS V14.01,2013-03-26 22:22:00,
2013-03-26 16:27:00,44.2,17.0,21.64,NW,315,7.2,8.1,33,0.00,,---,0.17,VWS V14.01,2013-03-26 22:27:00,
2013-03-26 16:32:00,44.2,17.0,21.62,NW,315,5.4,8.1,33,0.00,,---,0.17,VWS V14.01,2013-03-26 22:32:00,
2013-03-26 16:37:00,45.0,16.9,21.62,South,180,3.1,5.8,32,0.00,,---,0.17,VWS V14.01,2013-03-26 22:37:00,
2013-03-26 16:43:00,45.5,17.4,21.62,SSE,158,2.2,8.3,32,0.00,,---,0.17,VWS V14.01,2013-03-26 22:43:00,
2013-03-26 16:48:00,45.7,17.5,21.62,East,90,3.6,4.0,32,0.00,,---,0.17,VWS V14.01,2013-03-26 22:48:00,
2013-03-26 16:53:00,45.5,16.6,21.62,WNW,292,5.4,6.3,31,0.00,,---,0.17,VWS V14.01,2013-03-26 22:53:00,
2013-03-26 16:59:00,45.0,16.9,21.62,WNW,292,3.1,4.9,32,0.00,,---,0.17,VWS V14.01,2013-03-26 22:59:00,
2013-03-26 17:04:00,43.5,15.6,21.64,WNW,292,3.6,3.6,32,0.00,,---,0.17,VWS V14.01,2013-03-26 23:04:00,
2013-03-26 17:09:00,43.5,16.3,21.64,NW,315,2.7,3.6,33,0.00,,---,0.17,VWS V14.01,2013-03-26 23:09:00,
2013-03-26 17:14:00,42.8,15.0,21.64,SW,225,2.7,3.6,32,0.00,,---,0.17,VWS V14.01,2013-03-26 23:14:00,
2013-03-26 17:19:00,42.3,15.2,21.64,West,270,0.0,3.6,33,0.00,,---,0.17,VWS V14.01,2013-03-26 23:19:00,
2013-03-26 17:24:00,40.6,13.8,21.64,NW,315,4.5,4.5,33,0.00,,---,0.17,VWS V14.01,2013-03-26 23:24:00,
2013-03-26 17:30:00,40.3,14.2,21.64,NW,315,0.0,4.0,34,0.00,,---,0.17,VWS V14.01,2013-03-26 23:30:00,
2013-03-26 17:35:00,40.5,14.3,21.64,NW,315,4.0,4.0,34,0.00,,---,0.17,VWS V14.01,2013-03-26 23:35:00,
2013-03-26 17:40:00,40.5,14.3,21.64,NW,315,0.0,0.0,34,0.00,,---,0.17,VWS V14.01,2013-03-26 23:40:00,
2013-03-26 17:45:00,40.5,14.3,21.64,West,270,0.0,0.0,34,0.00,,---,0.17,VWS V14.01,2013-03-26 23:45:00,
2013-03-26 17:50:00,40.1,13.3,21.64,WNW,292,0.0,3.1,33,0.00,,---,0.17,VWS V14.01,2013-03-26 23:50:00,
2013-03-26 17:55:00,39.9,13.8,21.64,NW,315,0.0,0.0,34,0.00,,---,0.17,VWS V14.01,2013-03-26 23:55:00,
2013-03-26 18:01:00,39.4,13.4,21.64,NW,315,3.6,4.5,34,0.00,,---,0.17,VWS V14.01,2013-03-27 00:01:00,
2013-03-26 18:06:00,39.2,13.2,21.64,NW,315,0.0,4.5,34,0.00,,---,0.17,VWS V14.01,2013-03-27 00:06:00,
2013-03-26 18:11:00,38.7,13.4,21.64,NW,315,4.0,4.0,35,0.00,,---,0.17,VWS V14.01,2013-03-27 00:11:00,
2013-03-26 18:17:00,37.9,13.4,21.64,NW,315,2.7,4.0,36,0.00,,---,0.17,VWS V14.01,2013-03-27 00:17:00,
2013-03-26 18:22:00,37.6,13.1,21.64,WNW,292,0.0,2.7,36,0.00,,---,0.17,VWS V14.01,2013-03-27 00:22:00,
2013-03-26 18:27:00,37.0,13.8,21.64,NW,315,5.8,5.8,38,0.00,,---,0.17,VWS V14.01,2013-03-27 00:27:00,
2013-03-26 18:33:00,36.9,14.2,21.64,NW,315,0.0,4.0,39,0.00,,---,0.17,VWS V14.01,2013-03-27 00:33:00,
2013-03-26 18:39:00,36.3,13.8,21.64,NW,315,10.5,10.5,39,0.00,,---,0.17,VWS V14.01,2013-03-27 00:39:00,
2013-03-26 18:44:00,36.3,14.3,21.64,NW,315,5.8,5.8,40,0.00,,---,0.17,VWS V14.01,2013-03-27 00:44:00,
2013-03-26 18:49:00,36.1,14.2,21.67,East,90,0.0,0.0,40,0.00,,---,0.17,VWS V14.01,2013-03-27 00:49:00,
2013-03-26 18:54:00,35.8,13.8,21.67,South,180,3.1,3.1,40,0.00,,---,0.17,VWS V14.01,2013-03-27 00:54:00,
2013-03-26 19:00:00,35.8,13.8,21.67,SE,135,3.1,3.1,40,0.00,,---,0.17,VWS V14.01,2013-03-27 01:00:00,
2013-03-26 19:05:00,35.6,13.7,21.64,ESE,112,4.0,4.9,40,0.00,,---,0.17,VWS V14.01,2013-03-27 01:05:00,
2013-03-26 19:10:00,35.4,14.1,21.64,East,90,2.7,2.7,41,0.00,,---,0.17,VWS V14.01,2013-03-27 01:10:00,
2013-03-26 19:15:00,35.6,13.7,21.64,West,270,0.0,2.7,40,0.00,,---,0.17,VWS V14.01,2013-03-27 01:15:00,
2013-03-26 19:20:00,35.6,13.7,21.64,NE,45,0.0,4.0,40,0.00,,---,0.17,VWS V14.01,2013-03-27 01:20:00,
2013-03-26 19:25:00,35.4,13.5,21.64,East,90,3.1,3.1,40,0.00,,---,0.17,VWS V14.01,2013-03-27 01:25:00,
2013-03-26 19:31:00,35.2,13.4,21.64,East,90,0.0,0.0,40,0.00,,---,0.17,VWS V14.01,2013-03-27 01:31:00,
2013-03-26 19:36:00,34.7,13.4,21.64,East,90,2.7,4.0,41,0.00,,---,0.17,VWS V14.01,2013-03-27 01:36:00,
2013-03-26 19:43:00,34.3,13.1,21.64,East,90,2.7,4.0,41,0.00,,---,0.17,VWS V14.01,2013-03-27 01:43:00,
2013-03-26 19:48:00,34.0,12.8,21.64,East,90,0.0,0.0,41,0.00,,---,0.17,VWS V14.01,2013-03-27 01:48:00,
2013-03-26 19:54:00,33.8,12.6,21.64,NW,315,0.0,0.0,41,0.00,,---,0.17,VWS V14.01,2013-03-27 01:54:00,
2013-03-26 19:59:00,33.6,12.4,21.64,SW,225,0.0,4.0,41,0.00,,---,0.17,VWS V14.01,2013-03-27 01:59:00,
2013-03-26 20:04:00,33.4,12.8,21.64,South,180,0.0,0.0,42,0.00,,---,0.17,VWS V14.01,2013-03-27 02:04:00,
2013-03-26 20:09:00,33.3,12.7,21.64,East,90,0.0,0.0,42,0.00,,---,0.17,VWS V14.01,2013-03-27 02:09:00,
2013-03-26 20:15:00,33.1,13.0,21.64,South,180,2.7,3.1,43,0.00,,---,0.17,VWS V14.01,2013-03-27 02:15:00,
2013-03-26 20:20:00,32.9,12.3,21.67,SE,135,0.0,0.0,42,0.00,,---,0.17,VWS V14.01,2013-03-27 02:20:00,
2013-03-26 20:25:00,32.5,12.0,21.67,SE,135,0.0,0.0,42,0.00,,---,0.17,VWS V14.01,2013-03-27 02:25:00,
2013-03-26 20:30:00,32.2,11.7,21.67,SE,135,0.0,0.0,42,0.00,,---,0.17,VWS V14.01,2013-03-27 02:30:00,
2013-03-26 20:36:00,31.5,11.6,21.67,SE,135,0.0,0.0,43,0.00,,---,0.17,VWS V14.01,2013-03-27 02:36:00,
2013-03-26 20:41:00,30.0,10.8,21.67,SE,135,0.0,0.0,44,0.00,,---,0.17,VWS V14.01,2013-03-27 02:41:00,
2013-03-26 20:46:00,29.3,10.6,21.67,SE,135,0.0,0.0,45,0.00,,---,0.17,VWS V14.01,2013-03-27 02:46:00,
2013-03-26 20:51:00,28.6,10.9,21.67,SE,135,0.0,0.0,47,0.00,,---,0.17,VWS V14.01,2013-03-27 02:51:00,
2013-03-26 20:57:00,27.3,11.1,21.67,SE,135,0.0,0.0,50,0.00,,---,0.17,VWS V14.01,2013-03-27 02:57:00,
2013-03-26 21:02:00,27.0,11.7,21.67,SE,135,0.0,0.0,52,0.00,,---,0.17,VWS V14.01,2013-03-27 03:02:00,
2013-03-26 21:07:00,26.8,12.4,21.67,SE,135,0.0,0.0,54,0.00,,---,0.17,VWS V14.01,2013-03-27 03:07:00,
2013-03-26 21:13:00,26.4,12.9,21.67,SE,135,0.0,0.0,56,0.00,,---,0.17,VWS V14.01,2013-03-27 03:13:00,
2013-03-26 21:18:00,26.2,12.7,21.67,SE,135,0.0,0.0,56,0.00,,---,0.17,VWS V14.01,2013-03-27 03:18:00,
2013-03-26 21:23:00,25.9,11.9,21.67,SE,135,0.0,0.0,55,0.00,,---,0.17,VWS V14.01,2013-03-27 03:23:00,
2013-03-26 21:28:00,25.9,12.4,21.67,SE,135,0.0,0.0,56,0.00,,---,0.17,VWS V14.01,2013-03-27 03:28:00,
2013-03-26 21:33:00,25.5,12.4,21.67,SE,135,0.0,0.0,57,0.00,,---,0.17,VWS V14.01,2013-03-27 03:33:00,
2013-03-26 21:39:00,25.7,13.4,21.67,SE,135,0.0,0.0,59,0.00,,---,0.17,VWS V14.01,2013-03-27 03:39:00,
2013-03-26 21:44:00,25.9,13.5,21.67,SE,135,0.0,0.0,59,0.00,,---,0.17,VWS V14.01,2013-03-27 03:44:00,
2013-03-26 21:50:00,26.2,14.3,21.70,SE,135,2.2,3.1,60,0.00,,---,0.17,VWS V14.01,2013-03-27 03:50:00,
2013-03-26 21:55:00,26.4,14.8,21.70,SE,135,0.0,0.0,61,0.00,,---,0.17,VWS V14.01,2013-03-27 03:55:00,
2013-03-26 22:00:00,26.6,15.0,21.70,SE,135,0.0,0.0,61,0.00,,---,0.17,VWS V14.01,2013-03-27 04:00:00,
2013-03-26 22:01:00,26.6,15.0,21.70,West,270,2.7,2.7,61,0.00,,---,0.17,VWS V14.01,2013-03-27 04:01:00,
2013-03-26 22:02:00,26.8,15.1,21.70,WNW,292,4.9,4.9,61,0.00,,---,0.17,VWS V14.01,2013-03-27 04:02:00,
2013-03-26 22:07:00,27.0,15.3,21.70,WNW,292,2.7,2.7,61,0.00,,---,0.17,VWS V14.01,2013-03-27 04:07:00,
2013-03-26 22:12:00,27.0,14.9,21.70,WNW,292,2.7,2.7,60,0.00,,---,0.17,VWS V14.01,2013-03-27 04:12:00,
2013-03-26 22:17:00,27.0,15.7,21.70,NW,315,2.7,2.7,62,0.00,,---,0.17,VWS V14.01,2013-03-27 04:17:00,
2013-03-26 22:23:00,27.0,15.7,21.70,NW,315,0.0,0.0,62,0.00,,---,0.17,VWS V14.01,2013-03-27 04:23:00,
2013-03-26 22:28:00,27.0,16.1,21.70,NW,315,0.0,0.0,63,0.00,,---,0.17,VWS V14.01,2013-03-27 04:28:00,
2013-03-26 22:33:00,27.0,16.1,21.70,NW,315,0.0,0.0,63,0.00,,---,0.17,VWS V14.01,2013-03-27 04:33:00,
2013-03-26 22:39:00,27.0,16.4,21.70,NW,315,0.0,0.0,64,0.00,,---,0.17,VWS V14.01,2013-03-27 04:39:00,
2013-03-26 22:44:00,27.0,16.4,21.70,NW,315,0.0,0.0,64,0.00,,---,0.17,VWS V14.01,2013-03-27 04:44:00,
2013-03-26 22:49:00,27.1,16.2,21.70,NW,315,0.0,0.0,63,0.00,,---,0.17,VWS V14.01,2013-03-27 04:49:00,
2013-03-26 22:54:00,27.0,16.1,21.70,NW,315,0.0,0.0,63,0.00,,---,0.17,VWS V14.01,2013-03-27 04:54:00,
2013-03-26 22:59:00,27.0,15.7,21.70,NW,315,0.0,0.0,62,0.00,,---,0.17,VWS V14.01,2013-03-27 04:59:00,
2013-03-26 23:04:00,27.0,16.1,21.70,NW,315,0.0,0.0,63,0.00,,---,0.17,VWS V14.01,2013-03-27 05:04:00,
2013-03-26 23:09:00,26.8,15.5,21.70,NW,315,0.0,0.0,62,0.00,,---,0.17,VWS V14.01,2013-03-27 05:09:00,
2013-03-26 23:14:00,26.6,15.4,21.70,NW,315,0.0,0.0,62,0.00,,---,0.17,VWS V14.01,2013-03-27 05:14:00,
2013-03-26 23:20:00,26.2,15.0,21.70,NW,315,0.0,0.0,62,0.00,,---,0.17,VWS V14.01,2013-03-27 05:20:00,
2013-03-26 23:25:00,25.9,15.0,21.70,NW,315,0.0,0.0,63,0.00,,---,0.17,VWS V14.01,2013-03-27 05:25:00,
2013-03-26 23:30:00,25.7,14.9,21.70,NW,315,0.0,0.0,63,0.00,,---,0.17,VWS V14.01,2013-03-27 05:30:00,
2013-03-26 23:35:00,25.3,14.9,21.70,NW,315,0.0,0.0,64,0.00,,---,0.17,VWS V14.01,2013-03-27 05:35:00,
2013-03-26 23:40:00,25.2,14.7,21.70,NW,315,0.0,0.0,64,0.00,,---,0.17,VWS V14.01,2013-03-27 05:40:00,
2013-03-26 23:46:00,25.3,15.2,21.70,NW,315,0.0,0.0,65,0.00,,---,0.17,VWS V14.01,2013-03-27 05:46:00,
2013-03-26 23:51:00,25.0,14.9,21.70,NW,315,0.0,0.0,65,0.00,,---,0.17,VWS V14.01,2013-03-27 05:51:00,
2013-03-26 23:57:00,25.2,15.1,21.70,NW,315,0.0,0.0,65,0.00,,---,0.17,VWS V14.01,2013-03-27 05:57:00,